TimeAKDT,TemperatureF,Dew PointF,Humidity,Sea Level PressureIn,VisibilityMPH,Wind Direction,Wind SpeedMPH,Gust SpeedMPH,PrecipitationIn,Events,Conditions,WindDirDegrees,DateUTC
12:53 AM,23.0,-0.9,35,29.79,10.0,North,12.7,25.3,N/A,,Clear,350,2013-03-20 08:53:00
1:53 AM,21.9,-0.9,37,29.80,10.0,NNW,24.2,32.2,N/A,,Clear,330,2013-03-20 09:53:00
2:53 AM,21.9,-0.9,37,29.79,10.0,NNW,20.7,31.1,N/A,,Clear,330,2013-03-20 10:53:00
3:53 AM,21.9,-2.0,35,29.78,10.0,NNW,19.6,36.8,N/A,,Clear,330,2013-03-20 11:53:00
4:53 AM,21.0,-2.9,35,29.79,10.0,NW,19.6,32.2,N/A,,Clear,320,2013-03-20 12:53:00
5:53 AM,21.0,-2.9,35,29.80,9.0,NW,20.7,35.7,N/A,,Clear,320,2013-03-20 13:53:00
6:53 AM,19.9,-2.9,37,29.80,10.0,NNW,21.9,34.5,N/A,,Clear,330,2013-03-20 14:53:00
7:53 AM,19.9,-2.9,37,29.81,10.0,NW,19.6,33.4,N/A,,Clear,320,2013-03-20 15:53:00
8:53 AM,19.9,-2.9,37,29.79,9.0,NNW,23.0,38.0,N/A,,Clear,330,2013-03-20 16:53:00
9:53 AM,21.9,-2.9,34,29.80,10.0,NW,20.7,34.5,N/A,,Clear,310,2013-03-20 17:53:00
10:53 AM,21.9,-2.0,35,29.81,10.0,NW,19.6,27.6,N/A,,Clear,320,2013-03-20 18:53:00
11:53 AM,24.1,-2.9,31,29.83,10.0,NNW,21.9,39.1,N/A,,Clear,330,2013-03-20 19:53:00
12:53 PM,24.1,-2.9,31,29.82,10.0,NW,18.4,36.8,N/A,,Clear,310,2013-03-20 20:53:00
1:53 PM,26.1,-2.9,28,29.83,10.0,NW,20.7,33.4,N/A,,Clear,320,2013-03-20 21:53:00
2:53 PM,27.0,-4.0,26,29.83,10.0,NW,23.0,41.4,N/A,,Clear,310,2013-03-20 22:53:00
3:53 PM,27.0,-2.0,29,29.82,10.0,NW,23.0,42.6,N/A,,Clear,320,2013-03-20 23:53:00
4:53 PM,27.0,-0.0,31,29.83,10.0,NW,23.0,39.1,N/A,,Clear,320,2013-03-21 00:53:00
5:53 PM,27.0,-0.9,30,29.83,10.0,NNW,15.0,25.3,N/A,,Clear,330,2013-03-21 01:53:00
6:53 PM,26.1,-0.9,31,29.84,10.0,NW,20.7,34.5,N/A,,Clear,320,2013-03-21 02:53:00
7:53 PM,25.0,-0.9,33,29.84,10.0,NNW,19.6,29.9,N/A,,Clear,330,2013-03-21 03:53:00
8:53 PM,25.0,-0.9,33,29.86,10.0,NW,16.1,24.2,N/A,,Clear,320,2013-03-21 04:53:00
9:53 PM,24.1,1.0,37,29.89,10.0,North,16.1,-,N/A,,Clear,350,2013-03-21 05:53:00
10:53 PM,23.0,-0.0,37,29.91,10.0,North,11.5,-,N/A,,Clear,350,2013-03-21 06:53:00
11:53 PM,24.1,1.0,37,29.93,10.0,North,15.0,-,N/A,,Clear,350,2013-03-21 07:53:00